Погода в Евлахе

Азербайджан     40°36′52″N   47°08′51″E
темп.,
°C
ветер,
м/с
пор.,
м/с
влажн.,
%
обл.,
%
осадки,
мм/ч
давл.,
гПа
погр.,
м
10 мая, пн
пн1001:00+14сз132062100 0.3 1013686
04:00+13сз132062100 0.3 1014905
07:00+10сз142170100 0.3 10181177
10:00+12сз111951100 0.6 10191245
13:00+14с51154100 0.0 10201063
16:00+15в4357100 0.0 1020507
19:00+14вюв566123 0.0 1020515
22:00+13в476284 0.0 1021262
11 мая, вт
вт1101:00+12юв596953 0.0 1021550
04:00+12вюв1469100 0.0 1021338
07:00+12ююз0168100 0.0 1022130
10:00+13ссв115735 0.0 1021623
13:00+18ссз11380 0.0 10181501
16:00+21ссз43370 0.0 10161715
19:00+19сз33470 0.0 1015570
22:00+15с22560 0.0 101618
12 мая, ср
ср1201:00+13ссв11630 0.0 101714
04:00+12сз33700 0.0 101742
07:00+14сз24660 0.0 1017173
10:00+19сз33460 0.0 10161027
13:00+23ссз11370 0.0 10141304
16:00+26вюв21330 0.0 10131375
19:00+25юв34410 0.0 1013104
22:00+20юв33500 0.0 101533
13 мая, чт
чт1301:00+17вюв37763 0.0 1015151
04:00+15ю22815 0.0 101514
07:00+16юв11765 0.0 1017120
10:00+22юв11550 0.0 1016752
13:00+26вюв11400 0.0 10151144
16:00+29юв22332 0.0 10131369
19:00+28ююв353992 0.0 1013139
22:00+23ююв23495 0.0 101420
14 мая, пт
пт1401:00+20вюв47715 0.0 1015160
04:00+18юв11751 0.0 101611
07:00+20зсз11670 0.0 101792
10:00+25ссз11490 0.0 1017683
13:00+30юв33350 0.0 10151405
16:00+32юв55270 0.0 10131888
19:00+30ююв36320 0.0 1013140
22:00+24юв494772 0.0 1015166